User: anonymous   Login
Location: Clinton NY
(43.0598°N, 75.3602°W)
Time: 21:34:29
(UTC-04:00)
Language:

Iridium 42 - Orbit

View from above orbital plane
View from above orbital plane
View from above satellite
View from above satellite

Ground track
Ground track

The orbit data is extracted from the following two-line orbital elements,

1 25077U 97077A   16176.49033387  .00000080  00000-0  21212-4 0  9999
2 25077  86.3974 171.4730 0002291  84.8688 275.2769 14.34486593970910
Epoch (UTC): 24 June 2016 11:46:04
Eccentricity: 0.0002291
inclination: 86.3974°
perigee height: 775 km
apogee height: 778 km
right ascension of ascending node: 171.4730°
argument of perigee: 84.8688°
revolutions per day: 14.34486593
mean anomaly at epoch: 275.2769°
orbit number at epoch: 97091

The dashed part of the orbit path shows where the satellite is in the earth's shadow,  

DLR